RADUGA 4 [-]

Last updated on March 31, 2020, 4:59 a.m. UTC

1 10987U 78073A   20090.71577397  .00000141  00000-0  00000+0 0  9992
2 10987  10.2862 306.7136 0011173 348.3243 188.8314  1.00269330 96835
UTC
Height (km)
Latitude
Longitude
Inclination
Orbital Period
UTC large
Height (km)
Speed (km/s)
/
Latitude / Longitude
Inclination (degrees)
Orbital Period (minutes)
Azimuth
Elevation
Range (km)
Doppler Factor
iOS Compass Heading
iOS Angle

Next 30 passes for location: Hong Kong

Rise time Rise Azimuth (degrees) Set time Set Azimuth (degrees) Duration Max altitude (degrees)

No matching passes for this satellites